SHIYAN-32 02

Last updated on Tue Dec 09 2025 00:02:05 GMT+0000 (Coordinated Universal Time)

1 66378U 25255C 25342.77738720 .00041942 00000+0 88427-3 0 9997 2 66378 52.9919 196.6578 0012189 21.8642 338.2881 15.44771666 4603
UTC large
Height (km)
Speed (km/s)
/
Latitude / Longitude
Inclination (degrees)
Orbital Period (minutes)
Azimuth
Elevation
Range (km)
Doppler Factor

Next 0 passes for location: London (51.5072 / 0.1276)

Sorry there are no passes over London.